www.pogodaiklimat.ru

Погода и климат >> Архив погоды >> Австралия >> Западная Австралия >> Леинстер


ПОГОДА в Леинстере

  • Прогноз погоды в Леинстере
  • Монитор погоды в Леинстере

АРХИВ ПОГОДЫ в Леинстере

Время (UTC), дата Ветер
(напр.,м/с)
 
Видим.   Явления Облачность Т
(С)
Тd
(С)
f
(%)
Тe
(С)
Тes
(С)
Комфортность P
(гПа)
Po
(гПа)
Тmin
(С)
Tmax
(С)
R
(мм)
R24
(мм)
S
(см)
10 18.06 ЮВ 3 н/о н/о +13.6 +1.6 44 +13 +13 1022.2 963.8
12 18.06 ЮВ 3 н/о н/о +10.9 +1.4 52 +9 +9 1022.5 964.1
13 18.06 В 3 н/о н/о +9.2 +1.1 57 +7 +7 1022.5 964.1 +17.9
15 18.06 В 2 н/о н/о +7.2 +1.1 65 +5 +5 1022.6 964.2
16 18.06 ЮВ 2 н/о н/о +6.6 +0.9 67 +5 +5 1022.5 964.1
18 18.06 В 2 н/о н/о +5.9 +0.7 69 +4 +4 1022.2 963.8
19 18.06 В 2 н/о н/о +5.0 +0.4 72 +3 +3 1021.9 963.5
21 18.06 В 3 н/о н/о +3.7 +0.4 79 0 0 1022.0 963.6
22 18.06 В 3 н/о н/о +3.3 +0.2 80 -0 -0 1022.6 964.2
00 19.06 СВ 3 н/о н/о +6.3 +0.4 66 +3 +3 1023.6 965.1
01 19.06 СВ 5 н/о н/о +10.1 +1.0 53 +7 +7 1023.7 965.2 +3.2
03 19.06 В 5 н/о н/о +14.4 +1.7 42 +13 +13 1022.4 964.0
04 19.06 В 5 н/о н/о +16.2 +2.6 40 +15 +15 1021.2 962.9
06 19.06 В 5 н/о н/о +17.9 +1.8 34 +18 +18 1019.2 961.0
07 19.06 В 5 н/о н/о +17.8 +1.7 34 +17 +17 1019.0 960.8
09 19.06 В 4 н/о н/о +16.9 +1.4 35 +17 +17 1018.9 960.7
10 19.06 В 3 н/о н/о +15.0 +1.2 39 +15 +15 1019.2 961.0
12 19.06 ЮВ 4 н/о н/о +12.7 +1.4 46 +11 +11 1019.7 961.4
13 19.06 В 3 н/о н/о +11.9 +1.3 48 +11 +11 1020.2 961.9 +18.9
15 19.06 ЮВ 2 н/о н/о +9.6 +1.0 55 +8 +8 1020.4 962.1
16 19.06 В 2 н/о н/о +9.2 +1.1 57 +8 +8 1020.3 962.0
18 19.06 ЮВ 2 н/о н/о +9.3 +1.0 56 +8 +8 1020.6 962.3
19 19.06 ЮВ 3 н/о 5/0
[]
+9.4 +0.8 55 +7 +7 1020.4 962.1
21 19.06 ЮВ 3 н/о н/о +8.9 +0.6 56 +7 +7 1019.9 961.6
22 19.06 ЮВ 3 н/о 1/0 2000 м
[]
+8.1 +0.3 58 +6 +6 1020.0 961.7
00 20.06 ЮВ 4 н/о н/о +10.4 +0.7 51 +8 +8 1020.4 962.1
01 20.06 В 5 н/о 8/0 2000 м
[]
+13.2 +0.9 43 +11 +13 1020.4 962.1 +6.4
03 20.06 СВ 6 н/о н/о +18.7 +3.7 37 +18 +18 1019.2 961.0
04 20.06 С 6 н/о н/о +21.3 +5.2 35 +22 +22 комфорт 1018.1 959.9
06 20.06 СВ 5 н/о н/о +24.1 +5.9 31 +24 +24 комфорт 1016.1 958.0
07 20.06 СВ 5 н/о н/о +24.1 +5.5 30 +24 +24 комфорт 1015.8 957.8
09 20.06 СВ 4 н/о н/о +21.9 +4.9 33 +22 +22 комфорт 1016.6 958.5
10 20.06 СВ 3 н/о н/о +19.7 +4.6 37 +20 +20 1017.0 958.9
12 20.06 С 3 н/о н/о +17.5 +4.5 42 +18 +18 1017.5 959.4
13 20.06 С 3 н/о н/о +16.2 +4.6 46 +16 +16 1017.5 959.4 +24.7
15 20.06 В 3 н/о н/о +13.6 +4.2 53 +13 +13 1017.4 959.3
16 20.06 СВ 4 н/о н/о +12.4 +4.1 57 +11 +11 1016.8 958.7
18 20.06 СВ 2 н/о н/о +10.4 +3.9 64 +9 +9 1016.2 958.1
19 20.06 В 2 н/о н/о +10.3 +3.8 64 +9 +9 1016.1 958.0
21 20.06 В 1 н/о н/о +9.9 +3.6 65 +10 +10 1016.6 958.5
22 20.06 В 2 н/о 10/0
[]
+9.9 +3.9 66 +9 +9 1016.7 958.6
00 21.06 С 6 н/о н/о +15.3 +6.1 54 +14 +14 1017.4 959.3
01 21.06 С 6 н/о 10/0
[]
+17.4 +8.3 55 +17 +18 1017.7 959.6 +9.4
03 21.06 С 7 н/о н/о +20.6 +11.2 55 +22 +22 комфорт 1017.4 959.3
04 21.06 С 7 н/о 10/0 2000 м
[]
+23.4 +11.8 48 +26 +27 жарко 1016.6 958.5
06 21.06 С 7 н/о н/о +22.5 +11.9 51 +25 +25 комфорт 1015.7 957.7
07 21.06 С 7 н/о 10/10 1000 м
[]
+20.4 +12.6 61 +22 +22 комфорт 1015.8 957.8
09 21.06 С 6 н/о н/о +18.9 +12.2 65 +19 +19 1016.4 958.3
10 21.06 С 4 н/о 9/0
[]
+18.3 +10.4 60 +18 +18 1017.3 959.2
12 21.06 СВ 6 н/о н/о +16.4 +11.1 71 +15 +15 1017.7 959.6
13 21.06 С 5 н/о 10/0
[]
+15.8 +12.4 80 +15 +15 1018.3 960.1 +24.0
15 21.06 С 6 н/о н/о +14.5 +10.1 75 +13 +13 1018.1 959.9
16 21.06 С 5 н/о 10/0
[]
+14.2 +10.0 76 +12 +12 1017.9 959.7
18 21.06 С 4 н/о н/о +13.7 +11.2 85 +12 +12 1017.4 959.3
19 21.06 С 6 н/о 9/0
[]
+13.7 +10.7 82 +12 +12 1017.1 959.0
21 21.06 С 5 н/о н/о +12.8 +8.3 74 +11 +11 1017.1 959.0
22 21.06 С 5 н/о н/о +12.8 +7.0 68 +11 +11 1017.4 959.3
00 22.06 С 6 н/о н/о +14.2 +6.8 61 +12 +12 1018.0 959.8
01 22.06 С 7 н/о н/о +16.8 +6.0 49 +16 +16 1018.4 960.2 +12.2
03 22.06 С 8 н/о н/о +21.0 +5.4 36 +21 +21 комфорт 1017.6 959.5
04 22.06 С 8 н/о 3/3 1500 м
[]
+21.7 +4.3 32 +22 +23 комфорт 1016.5 958.4
06 22.06 С 6 н/о н/о +24.6 +3.3 25 +24 +24 комфорт 1014.6 956.6
07 22.06 С 7 н/о 1/0
[]
+23.9 +2.7 25 +23 +24 комфорт 1014.5 956.5
09 22.06 С 4 н/о н/о +22.5 +2.1 26 +22 +22 комфорт 1014.4 956.4
10 22.06 С 4 н/о 9/0
[]
+20.7 +2.5 30 +21 +21 комфорт 1015.1 957.1
12 22.06 С 4 н/о н/о +18.4 +3.1 36 +18 +18 1015.7 957.7
13 22.06 С 5 н/о 10/0
[]
+18.3 +3.8 38 +18 +18 1016.1 958.0 +24.7
15 22.06 С 6 н/о н/о +17.9 +3.0 37 +17 +17 1015.8 957.8
16 22.06 С 7 н/о 10/0 2000 м
[]
+17.5 +2.7 37 +17 +17 1015.4 957.4
18 22.06 С 7 н/о н/о +17.6 +1.6 34 +17 +17 1015.0 957.0
19 22.06 С 7 н/о 10/0
[]
+17.3 +1.3 34 +16 +16 1015.2 957.2
21 22.06 С 7 н/о н/о +17.9 +0.1 30 +17 +17 1015.0 957.0
22 22.06 С 7 н/о 10/0 2000 м
[]
+17.6 -0.2 30 +17 +17 1015.3 957.3
00 23.06 С 6 н/о н/о +17.8 -0.5 29 +17 +17 1016.3 958.2
01 23.06 С 6 н/о 10/0 2000 м
[]
+18.8 -1.1 26 +18 +19 1016.4 958.3 +14.2
03 23.06 С 5 н/о н/о +20.1 +0.5 27 +20 +20 1016.1 958.0
04 23.06 С 5 н/о 10/0
[]
+21.0 -1.5 22 +21 +23 комфорт 1015.6 957.6
06 23.06 С 6 н/о н/о +21.2 -0.7 23 +21 +21 комфорт 1013.8 955.9
07 23.06 СЗ 4 н/о ливневой дождь 10/10 1500 м
[]
+19.6 +3.3 34 +20 +20 1015.0 957.0
09 23.06 З 4 н/о н/о +14.9 +11.1 78 +14 +14 1016.7 958.6
10 23.06 З 5 н/о слаб. дождь {туман} 10/0 2000 м
[]
+13.1 +12.6 97 +11 +11 1017.3 959.2
12 23.06 СЗ 6 н/о н/о +13.0 +12.5 97 +11 +11 1017.4 959.3
13 23.06 С 7 н/о в посл. час дождь со снегом {туман} 10/10 1500 м
[]
+14.2 +12.2 88 +12 +12 1017.1 959.0 +21.3
15 23.06 СЗ 4 н/о н/о +13.5 +13.2 98 +12 +12 1018.0 959.8
16 23.06 СЗ 5 н/о ливневой дождь {туман} 10/10 600 м
[]
+13.9 +13.6 98 +12 +12 1017.7 959.6
18 23.06 З 4 н/о н/о +13.7 +13.5 99 +12 +12 1018.1 959.9
19 23.06 З 3 н/о {туман} н/о +12.8 +12.8 100 +11 +11 1018.0 959.8
21 23.06 З 3 н/о н/о +12.5 +12.3 99 +11 +11 1019.0 960.8
22 23.06 ЮЗ 3 н/о 9/9 100 м
[]
+12.2 +12.0 99 +11 +11 1019.7 961.4
00 24.06 ЮЗ 1 н/о н/о +12.2 +12.2 100 +12 +12 1021.0 962.7
01 24.06 Ю 6 н/о 1/1 300 м
[]
+14.2 +11.5 84 +12 +14 1021.8 963.4 +11.6
03 24.06 Ю 4 н/о н/о +15.6 +10.2 70 +15 +15 1021.9 963.5
04 24.06 Ю 3 н/о н/о +16.1 +9.3 64 +16 +16 1021.2 962.9
06 24.06 ЮЗ 4 н/о н/о +17.5 +8.4 55 +17 +17 1020.4 962.1
07 24.06 ЮЗ 3 н/о н/о +17.8 +8.9 56 +18 +18 1020.4 962.1
09 24.06 ЮЗ 3 н/о н/о +17.2 +8.4 56 +17 +17 1021.1 962.8
10 24.06 ЮЗ 2 н/о н/о +14.7 +9.3 70 +15 +15 1021.9 963.5
12 24.06 ЮВ 2 н/о н/о +12.2 +9.9 86 +12 +12 1023.4 964.9
13 24.06 В 2 н/о н/о +11.9 +8.6 80 +11 +11 1023.9 965.4 +18.6
15 24.06 В 2 н/о н/о +10.5 +8.3 86 +9 +9 1023.7 965.2
16 24.06 В 3 н/о н/о +9.7 +8.1 90 +7 +7 1023.3 964.8
18 24.06 В 3 н/о н/о +9.4 +7.3 87 +7 +7 1022.5 964.1
19 24.06 В 3 н/о н/о +9.1 +7.4 89 +7 +7 1022.3 963.9
21 24.06 СВ 4 н/о н/о +8.1 +7.7 97 +5 +5 1022.7 964.3
22 24.06 СВ 4 н/о н/о +7.9 +7.5 97 +4 +4 1023.2 964.7
00 25.06 СВ 4 н/о н/о +10.3 +7.5 83 +8 +8 1023.7 965.2
01 25.06 СВ 6 н/о н/о +14.0 +7.8 66 +12 +12 1023.8 965.3 +7.7
03 25.06 СВ 5 н/о н/о +18.0 +8.0 52 +18 +18 1023.3 964.8
04 25.06 СВ 5 н/о н/о +20.1 +8.4 47 +21 +21 комфорт 1022.2 963.8
06 25.06 СВ 5 н/о н/о +21.8 +6.5 37 +23 +23 комфорт 1020.4 962.1
07 25.06 СВ 5 н/о 6/0
[]
+23.0 +6.7 35 +24 +25 комфорт 1019.8 961.5

 

Местоположение метеостанции Леинстер (Западная Австралия, Австралия): широта -27.85 долгота 120.70 высота над уровнем моря 498 м.

В архиве по умолчанию представлена погода в Леинстере за последнюю неделю. Архивные данные за месяц целиком и за предыдущие месяцы, начиная с января 2011 года, Вы можете получить, выбрав интересующий диапазон дат из раскрывающегося списка и нажав кнопку "Ввод!".


*Определитесь, кто Вы:
робот инопланетянин человек

Внимание! Время в таблицах - всемирное. Для получения местного времени необходимо прибавить поправку, которая равна 8 ч.

Смотрите также архив погоды в соседних городах и на ближайших метеорологических станциях:

Погода в Леонора аэропорту (Западная Австралия, Австралия) (130 км)
Погода в Лавертоне (Западная Австралия, Австралия) (188 км)
Погода в Микатарре (Западная Австралия, Австралия) (253 км)
Погода в Маунт Магнет аэропорту (Западная Австралия, Австралия) (283 км)
Погода в Калгурли-Боулдере (Западная Австралия, Австралия) (334 км)
Погода в Саутерн Кросс (Западная Австралия, Австралия) (398 км)
Погода в Дауоллину (Западная Австралия, Австралия) (476 км)
Погода в Мораве (Западная Австралия, Австралия) (481 км)
Погода в Норсмане (Западная Австралия, Австралия) (496 км)
Погода в Ньюмане (Западная Австралия, Австралия) (502 км)

Пояснения к столбцам:

Ветер - указаны скорость ветра в м/с - средняя за 10 мин, порывы в срок и между сроками (в фигурных скобках) и направление, откуда дует ветер: С - северный, СВ - северо-восточный, В - восточный, ЮВ - юго-восточный, Ю - южный, ЮЗ - юго-западный, З - западный, СЗ - северо-западный.
Видимость - горизонтальная дальность видимости в метрах или километрах. При видимости от 1 до 10 км при отсутствии осадков обычно наблюдается дымка, при ухудшении видимости до 1 км и менее - туман. В сухую погоду видимость может ухудшаться дымом, пылью или мглою.
Явления - указаны атмосферные явления, наблюдавшиеся в срок или в последний час перед сроком; фигурными скобками обозначены явления, наблюдавшиеся между сроками (за 1-3 часа до срока); квадратными скобками обозначены град или гололедные отложения с указанием их диаметра в мм.
Облачность - указаны через наклонную черту общая и нижняя облачность в баллах и высота нижней границы облаков в метрах; квадратными скобками обозначены формы облаков: Ci - перистые, Cs - перисто-слоистые, Cc - перисто-кучевые, Ac - высококучевые, As - высокослоистые, Sc - слоисто-кучевые, Ns - слоисто-дождевые, Cu - кучевые, Cb - кучево-дождевые. Подробнее классификацию облаков см. в Атласе облаков (PDF).
T - Температура воздуха - температура, измеренная на высоте 2 м над землей.
Td - Температура точки росы - температура, при понижении до которой содержащийся в воздухе водяной пар достигнет насыщения.
f - Относительная влажность воздуха - влажноcть воздуха, измеренная на высоте 2 м над землей.
Te - Эффективная температура - температура, которую ощущает одетый по сезону человек в тени. Характеристика душности погоды. При расчете учитывается влияние влажности воздуха и скорости ветра на теплоощущения человека.
Tes - Эффективная температура на солнце - температура, которую ощущает человек, с поправкой на солнечный нагрев. Характеристика знойности погоды. Зависит от высоты солнца над горизонтом, облачности и скорости ветра. Ночью, в пасмурную погоду, а также при ветре 12 м/с и более поправка равна нулю.
P - Атмосферное давление - приведенное к уровню моря атмосферное давление.
Po - Атмосферное давление - измеренное на уровне метеостанции атмосферное давление.
Tmin - Минимальная температура - минимум температуры воздуха на высоте 2 м над землей.
Tmax - Максимальная температура - максимум температуры воздуха на высоте 2 м над землей.
R - Количество осадков - Количество выпавших осадков за период времени, мм. При наведении курсора мыши на число - период времени, за который выпало указанное количество осадков.
R24 - Количество осадков - Количество выпавших осадков за 24 часа, мм.
S - Снежный покров - Высота снежного покрова, см. При наведении курсора мыши на число - состояние снежного покрова и степень покрытия местности в баллах.